| time (UTC) | temp F | wind direction | speed MPH | gust MPH | rain 1hr in | rain 24hr in | rain mn in | humidity % | barometer mb |
| 20260902235013 | 58 | 61 | 1.0 | 9.0 | 0.06 | 0.06 | 0.06 | 90 | 1006.1 |
| 20260902234525 | 58 | 175 | 1.0 | 4.0 | 0.05 | 0.05 | 0.05 | 89 | 1006.1 |
| 20260902234009 | 58 | 146 | 0.0 | 5.0 | 0.04 | 0.04 | 0.04 | 89 | 1006.0 |
| 20260902233512 | 59 | 129 | 1.0 | 5.0 | 0.03 | 0.03 | 0.03 | 88 | 1006.1 |
| 20260902233025 | 59 | 146 | 2.0 | 5.0 | 0.02 | 0.02 | 0.02 | 87 | 1006.1 |
| 20260902232514 | 59 | 162 | 1.0 | 5.0 | 0.01 | 0.01 | 0.01 | 87 | 1006.0 |
| 20260902232012 | 60 | 105 | 2.0 | 5.0 | 0.01 | 0.01 | 0.01 | 85 | 1005.8 |
| 20260902231532 | 60 | 160 | 1.0 | 5.0 | 0.01 | 0.01 | 0.01 | 84 | 1005.9 |
| 20260902231013 | 60 | 129 | 1.0 | 5.0 | 0.00 | 0.00 | 0.00 | 85 | 1006.0 |
| 20260902230509 | 61 | 126 | 1.0 | 5.0 | 0.00 | 0.00 | 0.00 | 83 | 1005.9 |
| 20260902230027 | 62 | 178 | 2.0 | 5.0 | 0.00 | 0.00 | 0.00 | 81 | 1006.0 |
| 20260902225512 | 62 | 93 | 0.0 | 3.0 | 0.00 | 0.00 | 0.00 | 80 | 1005.9 |
| 20260902225012 | 62 | 144 | 0.0 | 3.0 | 0.00 | 0.00 | 0.00 | 79 | 1005.8 |
| 20260902224540 | 63 | 93 | 1.0 | 5.0 | 0.00 | 0.00 | 0.00 | 78 | 1005.7 |
| 20260902224011 | 63 | 221 | 0.0 | 5.0 | 0.00 | 0.00 | 0.00 | 78 | 1005.7 |
| 20260902223516 | 63 | 165 | 2.0 | 5.0 | 0.00 | 0.00 | 0.00 | 77 | 1005.7 |
| 20260902223031 | 63 | 137 | 1.0 | 7.0 | 0.00 | 0.00 | 0.00 | 76 | 1005.6 |
| 20260902222514 | 64 | 155 | 3.0 | 8.0 | 0.00 | 0.00 | 0.00 | 74 | 1005.6 |
| 20260902222012 | 64 | 137 | 1.0 | 10.0 | 0.00 | 0.00 | 0.00 | 73 | 1005.5 |
| 20260902221531 | 64 | 156 | 4.0 | 10.0 | 0.00 | 0.00 | 0.00 | 72 | 1005.6 |
| 20260902221014 | 64 | 140 | 4.0 | 9.0 | 0.00 | 0.00 | 0.00 | 70 | 1005.7 |
| 20260902220514 | 64 | 189 | 3.0 | 9.0 | 0.00 | 0.00 | 0.00 | 69 | 1005.6 |
| 20260902220034 | 65 | 141 | 2.0 | 12.0 | 0.00 | 0.00 | 0.00 | 68 | 1005.5 |
| 20260902215513 | 65 | 106 | 5.0 | 12.0 | 0.00 | 0.00 | 0.00 | 66 | 1005.6 |
| 20260902215012 | 65 | 173 | 2.0 | 9.0 | 0.00 | 0.00 | 0.00 | 65 | 1005.5 |
| 20260902214529 | 66 | 126 | 4.0 | 8.0 | 0.00 | 0.00 | 0.00 | 64 | 1005.4 |
| 20260902214012 | 66 | 187 | 2.0 | 7.0 | 0.00 | 0.00 | 0.00 | 64 | 1005.5 |
| 20260902213511 | 65 | 146 | 1.0 | 9.0 | 0.00 | 0.00 | 0.00 | 64 | 1005.5 |
| 20260902213033 | 65 | 217 | 3.0 | 9.0 | 0.00 | 0.00 | 0.00 | 63 | 1005.7 |
| 20260902212516 | 66 | 173 | 4.0 | 9.0 | 0.00 | 0.00 | 0.00 | 62 | 1005.6 |
| 20260902212014 | 66 | 148 | 2.0 | 6.0 | 0.00 | 0.00 | 0.00 | 61 | 1005.6 |
| 20260902211527 | 67 | 137 | 2.0 | 7.0 | 0.00 | 0.00 | 0.00 | 61 | 1005.5 |
| 20260902211012 | 67 | 93 | 2.0 | 10.0 | 0.00 | 0.00 | 0.00 | 61 | 1005.5 |
| 20260902210512 | 67 | 221 | 4.0 | 10.0 | 0.00 | 0.00 | 0.00 | 61 | 1005.5 |
| 20260902210029 | 68 | 142 | 1.0 | 5.0 | 0.00 | 0.00 | 0.00 | 60 | 1005.4 |
| 20260902205512 | 69 | 126 | 1.0 | 7.0 | 0.00 | 0.00 | 0.00 | 57 | 1005.3 |
| 20260902205013 | 69 | 201 | 2.0 | 8.0 | 0.00 | 0.00 | 0.00 | 56 | 1005.3 |
| 20260902204537 | 69 | 178 | 1.0 | 8.0 | 0.00 | 0.00 | 0.00 | 55 | 1005.3 |
| 20260902204016 | 69 | 120 | 2.0 | 5.0 | 0.00 | 0.00 | 0.00 | 57 | 1005.3 |
| 20260902203512 | 69 | 93 | 0.0 | 7.0 | 0.00 | 0.00 | 0.00 | 60 | 1005.3 |
| 20260902203033 | 68 | 129 | 2.0 | 7.0 | 0.00 | 0.00 | 0.00 | 56 | 1005.3 |
| 20260902202514 | 68 | 93 | 2.0 | 7.0 | 0.00 | 0.00 | 0.00 | 57 | 1005.4 |
| 20260902202016 | 68 | 156 | 3.0 | 7.0 | 0.00 | 0.00 | 0.00 | 58 | 1005.5 |
| 20260902201528 | 68 | 169 | 1.0 | 8.0 | 0.00 | 0.00 | 0.00 | 58 | 1005.5 |
| 20260902201015 | 68 | 155 | 4.0 | 8.0 | 0.00 | 0.00 | 0.00 | 56 | 1005.6 |
| 20260902200515 | 68 | 129 | 1.0 | 4.0 | 0.00 | 0.00 | 0.00 | 60 | 1005.5 |
| 20260902200048 | 68 | 178 | 0.0 | 5.0 | 0.00 | 0.00 | 0.00 | 58 | 1005.6 |
| 20260902195514 | 68 | 51 | 0.0 | 6.0 | 0.00 | 0.00 | 0.00 | 59 | 1005.7 |
| 20260902195012 | 68 | 178 | 2.0 | 6.0 | 0.00 | 0.00 | 0.00 | 59 | 1005.8 |
| 20260902194529 | 68 | 183 | 1.0 | 10.0 | 0.00 | 0.00 | 0.00 | 57 | 1005.9 |
| 20260902194014 | 68 | 187 | 2.0 | 15.0 | 0.00 | 0.00 | 0.00 | 57 | 1005.9 |
| 20260902193516 | 68 | 221 | 2.0 | 15.0 | 0.00 | 0.00 | 0.00 | 57 | 1005.9 |
| 20260902193029 | 68 | 167 | 2.0 | 10.0 | 0.00 | 0.00 | 0.00 | 62 | 1006.1 |
| 20260902192514 | 67 | 153 | 2.0 | 7.0 | 0.00 | 0.00 | 0.00 | 58 | 1006.2 |
| 20260902192012 | 67 | 129 | 1.0 | 7.0 | 0.00 | 0.00 | 0.00 | 59 | 1006.0 |
| 20260902191531 | 67 | 219 | 2.0 | 10.0 | 0.00 | 0.00 | 0.00 | 59 | 1006.2 |
| 20260902191014 | 67 | 43 | 3.0 | 10.0 | 0.00 | 0.00 | 0.00 | 60 | 1006.2 |
| 20260902190512 | 67 | 126 | 2.0 | 10.0 | 0.00 | 0.00 | 0.00 | 61 | 1006.2 |
| 20260902190046 | 67 | 137 | 3.0 | 10.0 | 0.00 | 0.00 | 0.00 | 59 | 1006.4 |
| 20260902185513 | 67 | 190 | 3.0 | 10.0 | 0.00 | 0.00 | 0.00 | 59 | 1006.5 |
| 20260902185017 | 68 | 159 | 3.0 | 11.0 | 0.00 | 0.00 | 0.00 | 59 | 1006.5 |
| 20260902184532 | 68 | 139 | 2.0 | 11.0 | 0.00 | 0.00 | 0.00 | 59 | 1006.6 |
| 20260902184015 | 68 | 117 | 2.0 | 9.0 | 0.00 | 0.00 | 0.00 | 60 | 1006.6 |
| 20260902183513 | 68 | 140 | 3.0 | 8.0 | 0.00 | 0.00 | 0.00 | 61 | 1006.6 |
| 20260902183030 | 68 | 221 | 2.0 | 7.0 | 0.00 | 0.00 | 0.00 | 60 | 1006.7 |
| 20260902182516 | 68 | 139 | 2.0 | 7.0 | 0.00 | 0.00 | 0.00 | 60 | 1006.8 |
| 20260902182012 | 67 | 178 | 2.0 | 6.0 | 0.00 | 0.00 | 0.00 | 61 | 1006.9 |
| 20260902181530 | 67 | 170 | 1.0 | 10.0 | 0.00 | 0.00 | 0.00 | 62 | 1006.9 |
| 20260902181015 | 67 | 160 | 3.0 | 10.0 | 0.00 | 0.00 | 0.00 | 61 | 1007.0 |
| 20260902180514 | 67 | 225 | 2.0 | 8.0 | 0.00 | 0.00 | 0.00 | 61 | 1007.0 |
| 20260902180028 | 67 | 201 | 2.0 | 8.0 | 0.00 | 0.00 | 0.00 | 61 | 1007.0 |
| 20260902175512 | 67 | 51 | 2.0 | 8.0 | 0.00 | 0.00 | 0.00 | 64 | 1007.0 |
| 20260902175017 | 67 | 196 | 3.0 | 10.0 | 0.00 | 0.00 | 0.00 | 61 | 1007.0 |
| 20260902174530 | 67 | 171 | 3.0 | 10.0 | 0.00 | 0.00 | 0.00 | 62 | 1007.0 |
| 20260902174016 | 66 | 144 | 4.0 | 9.0 | 0.00 | 0.00 | 0.00 | 63 | 1007.0 |
| 20260902173515 | 66 | 178 | 1.0 | 8.0 | 0.00 | 0.00 | 0.00 | 65 | 1007.1 |
| 20260902173032 | 66 | 41 | 2.0 | 9.0 | 0.00 | 0.00 | 0.00 | 63 | 1007.0 |
| 20260902172514 | 66 | 83 | 2.0 | 9.0 | 0.00 | 0.00 | 0.00 | 66 | 1007.1 |
| 20260902172015 | 66 | 178 | 1.0 | 5.0 | 0.00 | 0.00 | 0.00 | 64 | 1007.1 |
| 20260902171532 | 66 | 120 | 0.0 | 8.0 | 0.00 | 0.00 | 0.00 | 65 | 1007.1 |
| 20260902171018 | 66 | 126 | 2.0 | 9.0 | 0.00 | 0.00 | 0.00 | 63 | 1007.2 |
| 20260902170513 | 66 | 185 | 3.0 | 9.0 | 0.00 | 0.00 | 0.00 | 62 | 1007.2 |
| 20260902170030 | 66 | 131 | 3.0 | 11.0 | 0.00 | 0.00 | 0.00 | 64 | 1007.2 |
| 20260902165515 | 66 | 144 | 2.0 | 12.0 | 0.00 | 0.00 | 0.00 | 65 | 1007.3 |
| 20260902165015 | 66 | 177 | 4.0 | 12.0 | 0.00 | 0.00 | 0.00 | 64 | 1007.2 |
| 20260902164531 | 65 | 61 | 1.0 | 4.0 | 0.00 | 0.00 | 0.00 | 70 | 1007.2 |
| 20260902164012 | 65 | 93 | 2.0 | 8.0 | 0.00 | 0.00 | 0.00 | 68 | 1007.4 |
| 20260902163514 | 65 | 164 | 3.0 | 8.0 | 0.00 | 0.00 | 0.00 | 69 | 1007.4 |
| 20260902163028 | 64 | 201 | 2.0 | 8.0 | 0.00 | 0.00 | 0.00 | 71 | 1007.6 |
| 20260902162515 | 63 | 113 | 2.0 | 8.0 | 0.00 | 0.00 | 0.00 | 74 | 1007.7 |
| 20260902162011 | 63 | 205 | 1.0 | 6.0 | 0.00 | 0.00 | 0.00 | 77 | 1007.7 |
| 20260902161540 | 62 | 137 | 1.0 | 6.0 | 0.00 | 0.00 | 0.00 | 77 | 1007.7 |
| 20260902161013 | 62 | 162 | 1.0 | 5.0 | 0.00 | 0.00 | 0.00 | 78 | 1007.8 |
| 20260902160516 | 61 | 93 | 1.0 | 5.0 | 0.00 | 0.00 | 0.00 | 78 | 1007.9 |
| 20260902160034 | 61 | 144 | 1.0 | 4.0 | 0.00 | 0.00 | 0.00 | 78 | 1008.0 |
| 20260902155512 | 61 | 108 | 1.0 | 5.0 | 0.00 | 0.00 | 0.00 | 79 | 1008.1 |
| 20260902155014 | 61 | 232 | 2.0 | 5.0 | 0.00 | 0.00 | 0.00 | 80 | 1008.1 |
| 20260902154529 | 61 | 146 | 1.0 | 5.0 | 0.00 | 0.00 | 0.00 | 80 | 1008.2 |
| 20260902154015 | 61 | 144 | 1.0 | 5.0 | 0.00 | 0.00 | 0.00 | 79 | 1008.2 |
| 20260902153513 | 61 | 201 | 2.0 | 5.0 | 0.00 | 0.00 | 0.00 | 78 | 1008.3 |
| 20260902153028 | 61 | 144 | 1.0 | 4.0 | 0.00 | 0.00 | 0.00 | 80 | 1008.3 |
| 20260902152514 | 61 | 146 | 1.0 | 7.0 | 0.00 | 0.00 | 0.00 | 82 | 1008.3 |
| 20260902152012 | 61 | 188 | 2.0 | 7.0 | 0.00 | 0.00 | 0.00 | 80 | 1008.3 |
| 20260902151528 | 60 | 137 | 3.0 | 6.0 | 0.00 | 0.00 | 0.00 | 81 | 1008.5 |
| 20260902151011 | 60 | 148 | 3.0 | 5.0 | 0.00 | 0.00 | 0.00 | 83 | 1008.5 |
| 20260902150513 | 59 | 51 | 0.0 | 4.0 | 0.00 | 0.00 | 0.00 | 86 | 1008.6 |
| 20260902150033 | 58 | 221 | 1.0 | 4.0 | 0.00 | 0.00 | 0.00 | 86 | 1008.7 |
| 20260902145514 | 58 | 201 | 0.0 | 4.0 | 0.00 | 0.00 | 0.00 | 89 | 1008.8 |
| 20260902145013 | 57 | 51 | 0.0 | 2.0 | 0.00 | 0.00 | 0.00 | 89 | 1008.8 |
| 20260902144530 | 57 | 137 | 0.0 | 3.0 | 0.00 | 0.00 | 0.00 | 88 | 1008.8 |
| 20260902144014 | 57 | 120 | 0.0 | 3.0 | 0.00 | 0.00 | 0.00 | 88 | 1008.8 |
| 20260902143512 | 57 | 137 | 0.0 | 1.0 | 0.00 | 0.00 | 0.00 | 88 | 1008.9 |
| 20260902143030 | 58 | 51 | 0.0 | 1.0 | 0.00 | 0.00 | 0.00 | 88 | 1008.9 |
| 20260902142515 | 58 | 93 | 0.0 | 1.0 | 0.00 | 0.00 | 0.00 | 89 | 1008.9 |
| 20260902142011 | 58 | 93 | 0.0 | 3.0 | 0.00 | 0.00 | 0.00 | 88 | 1008.9 |
| 20260902141535 | 58 | 41 | 0.0 | 3.0 | 0.00 | 0.00 | 0.00 | 88 | 1008.9 |
| 20260902141017 | 57 | 165 | 0.0 | 3.0 | 0.00 | 0.00 | 0.00 | 88 | 1008.9 |
| 20260902140515 | 57 | 146 | 0.0 | 1.0 | 0.00 | 0.00 | 0.00 | 89 | 1009.0 |
| 20260902140035 | 57 | 178 | 0.0 | 2.0 | 0.00 | 0.00 | 0.00 | 88 | 1009.0 |
| 20260902135512 | 57 | 51 | 0.0 | 2.0 | 0.00 | 0.00 | 0.00 | 88 | 1009.0 |
| 20260902135015 | 57 | 265 | 0.0 | 2.0 | 0.00 | 0.00 | 0.00 | 89 | 1008.8 |
| 20260902134531 | 57 | 153 | 0.0 | 2.0 | 0.00 | 0.00 | 0.00 | 89 | 1008.8 |
| 20260902134012 | 57 | 137 | 0.0 | 2.0 | 0.00 | 0.00 | 0.00 | 88 | 1008.8 |
| 20260902133512 | 57 | 137 | 0.0 | 1.0 | 0.00 | 0.00 | 0.00 | 89 | 1008.8 |
| 20260902133028 | 57 | 51 | 0.0 | 1.0 | 0.00 | 0.00 | 0.00 | 89 | 1008.9 |
| 20260902132514 | 57 | 120 | 0.0 | 3.0 | 0.00 | 0.00 | 0.00 | 88 | 1008.9 |
| 20260902132015 | 57 | 126 | 0.0 | 3.0 | 0.00 | 0.00 | 0.00 | 88 | 1008.9 |
| 20260902131528 | 57 | 120 | 0.0 | 2.0 | 0.00 | 0.00 | 0.00 | 89 | 1008.9 |
| 20260902131016 | 57 | 178 | 0.0 | 1.0 | 0.00 | 0.00 | 0.00 | 90 | 1009.0 |
| 20260902130514 | 57 | 93 | 0.0 | 2.0 | 0.00 | 0.00 | 0.00 | 90 | 1009.0 |
| 20260902130029 | 57 | 178 | 0.0 | 2.0 | 0.00 | 0.00 | 0.00 | 89 | 1009.0 |
| 20260902125513 | 57 | 137 | 0.0 | 1.0 | 0.00 | 0.00 | 0.00 | 90 | 1009.1 |
| 20260902125012 | 57 | 137 | 0.0 | 1.0 | 0.00 | 0.00 | 0.00 | 90 | 1009.1 |
| 20260902124530 | 57 | 111 | 0.0 | 1.0 | 0.00 | 0.00 | 0.00 | 90 | 1009.1 |
| 20260902124013 | 57 | 137 | 0.0 | 2.0 | 0.00 | 0.00 | 0.00 | 90 | 1009.1 |
| 20260902123512 | 57 | 68 | 0.0 | 2.0 | 0.00 | 0.00 | 0.00 | 90 | 1009.1 |
| 20260902123032 | 57 | 51 | 0.0 | 2.0 | 0.00 | 0.00 | 0.00 | 89 | 1009.0 |
| 20260902122514 | 57 | 178 | 0.0 | 2.0 | 0.00 | 0.00 | 0.00 | 90 | 1009.0 |
| 20260902122013 | 57 | 120 | 0.0 | 2.0 | 0.00 | 0.00 | 0.00 | 90 | 1009.2 |
| 20260902121529 | 58 | 137 | 0.0 | 2.0 | 0.00 | 0.00 | 0.00 | 90 | 1009.2 |
| 20260902121013 | 58 | 93 | 0.0 | 2.0 | 0.00 | 0.00 | 0.00 | 90 | 1009.2 |
| 20260902120516 | 58 | 93 | 0.0 | 2.0 | 0.00 | 0.00 | 0.00 | 90 | 1009.2 |
| 20260902120031 | 58 | 178 | 0.0 | 2.0 | 0.00 | 0.00 | 0.00 | 90 | 1009.2 |
| 20260902115513 | 58 | 93 | 0.0 | 2.0 | 0.00 | 0.00 | 0.00 | 90 | 1009.2 |
| 20260902115014 | 58 | 111 | 0.0 | 6.0 | 0.00 | 0.00 | 0.00 | 90 | 1009.3 |
| 20260902114535 | 58 | 178 | 1.0 | 6.0 | 0.00 | 0.00 | 0.00 | 90 | 1009.3 |
| 20260902114013 | 58 | 68 | 1.0 | 3.0 | 0.00 | 0.00 | 0.00 | 90 | 1009.3 |
| 20260902113514 | 58 | 93 | 0.0 | 2.0 | 0.00 | 0.00 | 0.00 | 90 | 1009.3 |
| 20260902113027 | 58 | 137 | 0.0 | 5.0 | 0.00 | 0.00 | 0.00 | 90 | 1009.3 |
| 20260902112512 | 58 | 137 | 0.0 | 5.0 | 0.00 | 0.00 | 0.00 | 90 | 1009.4 |
| 20260902112012 | 58 | 178 | 0.0 | 3.0 | 0.00 | 0.00 | 0.00 | 90 | 1009.4 |
| 20260902111538 | 58 | 144 | 1.0 | 3.0 | 0.00 | 0.00 | 0.00 | 89 | 1009.5 |
| 20260902111018 | 58 | 137 | 0.0 | 3.0 | 0.00 | 0.00 | 0.00 | 89 | 1009.6 |
| 20260902110512 | 58 | 178 | 0.0 | 3.0 | 0.00 | 0.00 | 0.00 | 90 | 1009.7 |
| 20260902110036 | 58 | 178 | 0.0 | 2.0 | 0.00 | 0.00 | 0.00 | 90 | 1009.6 |
| 20260902105514 | 58 | 178 | 1.0 | 4.0 | 0.00 | 0.00 | 0.00 | 89 | 1009.6 |
| 20260902105012 | 58 | 146 | 0.0 | 4.0 | 0.00 | 0.00 | 0.00 | 89 | 1009.7 |
| 20260902104539 | 58 | 144 | 0.0 | 3.0 | 0.00 | 0.00 | 0.00 | 89 | 1009.6 |
| 20260902104018 | 58 | 137 | 0.0 | 3.0 | 0.00 | 0.00 | 0.00 | 89 | 1009.7 |
| 20260902103514 | 58 | 153 | 0.0 | 5.0 | 0.00 | 0.00 | 0.00 | 88 | 1009.7 |
| 20260902103030 | 58 | 205 | 1.0 | 5.0 | 0.00 | 0.00 | 0.00 | 88 | 1009.7 |
| 20260902102516 | 58 | 137 | 1.0 | 4.0 | 0.00 | 0.00 | 0.00 | 89 | 1009.8 |
| 20260902102016 | 58 | 142 | 0.0 | 2.0 | 0.00 | 0.00 | 0.00 | 89 | 1009.8 |
| 20260902101533 | 58 | 205 | 0.0 | 2.0 | 0.00 | 0.00 | 0.00 | 89 | 1009.9 |
| 20260902101013 | 58 | 93 | 0.0 | 2.0 | 0.00 | 0.00 | 0.00 | 89 | 1009.9 |
| 20260902100515 | 58 | 137 | 0.0 | 2.0 | 0.00 | 0.00 | 0.00 | 89 | 1009.8 |
| 20260902100033 | 58 | 93 | 0.0 | 1.0 | 0.00 | 0.00 | 0.00 | 89 | 1009.7 |
| 20260902095514 | 58 | 93 | 0.0 | 1.0 | 0.00 | 0.00 | 0.00 | 88 | 1009.8 |
| 20260902095014 | 58 | 137 | 0.0 | 1.0 | 0.00 | 0.00 | 0.00 | 88 | 1009.8 |
| 20260902094538 | 58 | 153 | 0.0 | 1.0 | 0.00 | 0.00 | 0.00 | 88 | 1009.8 |
| 20260902094016 | 58 | 137 | 0.0 | 1.0 | 0.00 | 0.00 | 0.00 | 88 | 1009.9 |
| 20260902093516 | 58 | 137 | 0.0 | 1.0 | 0.00 | 0.00 | 0.00 | 87 | 1009.8 |
| 20260902093033 | 58 | 68 | 0.0 | 1.0 | 0.00 | 0.00 | 0.00 | 87 | 1009.9 |
| 20260902092519 | 58 | 93 | 0.0 | 1.0 | 0.00 | 0.00 | 0.00 | 87 | 1010.0 |
| 20260902092017 | 58 | 68 | 0.0 | 1.0 | 0.00 | 0.00 | 0.00 | 87 | 1010.0 |
| 20260902091540 | 58 | 51 | 0.0 | 1.0 | 0.00 | 0.00 | 0.00 | 86 | 1010.0 |
| 20260902091012 | 58 | 51 | 0.0 | 1.0 | 0.00 | 0.00 | 0.00 | 86 | 1010.1 |
| 20260902090513 | 58 | 51 | 0.0 | 1.0 | 0.00 | 0.00 | 0.00 | 87 | 1010.2 |
| 20260902090029 | 59 | 93 | 0.0 | 1.0 | 0.00 | 0.00 | 0.00 | 86 | 1010.3 |
| 20260902085516 | 59 | 137 | 0.0 | 1.0 | 0.00 | 0.00 | 0.00 | 86 | 1010.3 |
| 20260902085016 | 59 | 51 | 0.0 | 1.0 | 0.00 | 0.00 | 0.00 | 87 | 1010.3 |
| 20260902084529 | 59 | 51 | 0.0 | 1.0 | 0.00 | 0.00 | 0.00 | 86 | 1010.6 |
| 20260902084020 | 59 | 137 | 0.0 | 1.0 | 0.00 | 0.00 | 0.00 | 86 | 1010.6 |
| 20260902083515 | 59 | 111 | 0.0 | 2.0 | 0.00 | 0.00 | 0.00 | 85 | 1010.6 |
| 20260902083029 | 59 | 93 | 0.0 | 3.0 | 0.00 | 0.00 | 0.00 | 85 | 1010.7 |
| 20260902082512 | 59 | 93 | 0.0 | 4.0 | 0.00 | 0.00 | 0.00 | 86 | 1010.7 |
| 20260902082003 | 59 | 93 | 0.0 | 4.0 | 0.00 | 0.00 | 0.00 | 85 | 1010.7 |
| 20260902081513 | 59 | 120 | 0.0 | 4.0 | 0.00 | 0.00 | 0.00 | 85 | 1010.7 |
| 20260902081003 | 59 | 193 | 1.0 | 4.0 | 0.00 | 0.00 | 0.00 | 85 | 1010.7 |
| 20260902080503 | 59 | 120 | 1.0 | 4.0 | 0.00 | 0.00 | 0.00 | 85 | 1010.6 |
| 20260902080006 | 59 | 129 | 1.0 | 3.0 | 0.00 | 0.00 | 0.00 | 85 | 1010.7 |
| 20260902075504 | 59 | 137 | 0.0 | 4.0 | 0.00 | 0.00 | 0.00 | 86 | 1010.7 |
| 20260902075004 | 59 | 120 | 1.0 | 5.0 | 0.00 | 0.00 | 0.00 | 86 | 1010.7 |
| 20260902074503 | 59 | 93 | 1.0 | 5.0 | 0.00 | 0.00 | 0.00 | 86 | 1010.8 |
| 20260902074004 | 59 | 126 | 0.0 | 3.0 | 0.00 | 0.00 | 0.00 | 87 | 1010.7 |
| 20260902073504 | 59 | 93 | 0.0 | 3.0 | 0.00 | 0.00 | 0.00 | 87 | 1010.6 |
| 20260902073006 | 59 | 119 | 0.0 | 2.0 | 0.00 | 0.00 | 0.00 | 87 | 1010.7 |
| 20260902072503 | 59 | 108 | 0.0 | 2.0 | 0.00 | 0.00 | 0.00 | 87 | 1010.8 |
| 20260902072004 | 59 | 51 | 0.0 | 5.0 | 0.00 | 0.00 | 0.00 | 87 | 1010.9 |
| 20260902071508 | 58 | 132 | 1.0 | 5.0 | 0.00 | 0.00 | 0.00 | 87 | 1010.9 |
| 20260902071003 | 58 | 111 | 1.0 | 4.0 | 0.00 | 0.00 | 0.00 | 88 | 1010.8 |
| 20260902070504 | 58 | 193 | 0.0 | 2.0 | 0.00 | 0.00 | 0.00 | 88 | 1010.7 |
| 20260902070006 | 58 | 153 | 0.0 | 2.0 | 0.00 | 0.00 | 0.00 | 88 | 1010.8 |
| 20260902065503 | 58 | 129 | 0.0 | 2.0 | 0.00 | 0.00 | 0.00 | 88 | 1010.8 |
| 20260902065003 | 58 | 137 | 0.0 | 2.0 | 0.00 | 0.00 | 0.00 | 87 | 1010.8 |
| 20260902064506 | 59 | 162 | 0.0 | 2.0 | 0.00 | 0.00 | 0.00 | 87 | 1010.8 |
| 20260902064004 | 59 | 221 | 0.0 | 2.0 | 0.00 | 0.00 | 0.00 | 87 | 1010.8 |
| 20260902063504 | 59 | 178 | 0.0 | 2.0 | 0.00 | 0.00 | 0.00 | 86 | 1010.8 |
| 20260902063007 | 59 | 137 | 0.0 | 2.0 | 0.00 | 0.00 | 0.00 | 87 | 1010.8 |
| 20260902062506 | 59 | 137 | 0.0 | 2.0 | 0.00 | 0.00 | 0.00 | 86 | 1010.8 |
| 20260902062003 | 59 | 93 | 0.0 | 2.0 | 0.00 | 0.00 | 0.00 | 86 | 1010.9 |
| 20260902061504 | 59 | 146 | 0.0 | 2.0 | 0.00 | 0.00 | 0.00 | 86 | 1010.8 |
| 20260902061003 | 59 | 126 | 1.0 | 5.0 | 0.00 | 0.00 | 0.00 | 86 | 1010.9 |
| 20260902060502 | 59 | 129 | 1.0 | 5.0 | 0.00 | 0.00 | 0.00 | 86 | 1011.1 |
| 20260902060013 | 59 | 144 | 1.0 | 4.0 | 0.00 | 0.00 | 0.00 | 85 | 1011.1 |
| 20260902055505 | 60 | 191 | 1.0 | 4.0 | 0.00 | 0.00 | 0.00 | 85 | 1011.2 |
| 20260902055003 | 60 | 190 | 0.0 | 3.0 | 0.00 | 0.00 | 0.00 | 85 | 1011.2 |
| 20260902054510 | 60 | 93 | 0.0 | 6.0 | 0.00 | 0.00 | 0.00 | 84 | 1011.2 |
| 20260902054002 | 60 | 157 | 1.0 | 6.0 | 0.00 | 0.00 | 0.00 | 83 | 1011.3 |
| 20260902053502 | 61 | 157 | 2.0 | 7.0 | 0.00 | 0.00 | 0.00 | 83 | 1011.3 |
| 20260902053007 | 61 | 171 | 3.0 | 7.0 | 0.00 | 0.00 | 0.00 | 82 | 1011.2 |
| 20260902052505 | 61 | 146 | 3.0 | 9.0 | 0.00 | 0.00 | 0.00 | 82 | 1011.2 |
| 20260902052007 | 61 | 153 | 1.0 | 9.0 | 0.00 | 0.00 | 0.00 | 82 | 1011.2 |
| 20260902051506 | 61 | 184 | 3.0 | 8.0 | 0.00 | 0.00 | 0.00 | 81 | 1011.3 |
| 20260902051004 | 61 | 146 | 2.0 | 12.0 | 0.00 | 0.00 | 0.00 | 81 | 1011.2 |
| 20260902050503 | 61 | 93 | 1.0 | 12.0 | 0.00 | 0.00 | 0.00 | 81 | 1011.2 |
| 20260902050008 | 61 | 100 | 2.0 | 7.0 | 0.00 | 0.00 | 0.00 | 81 | 1011.1 |
| 20260902045505 | 61 | 146 | 1.0 | 4.0 | 0.00 | 0.00 | 0.00 | 81 | 1011.1 |
| 20260902045004 | 61 | 137 | 2.0 | 4.0 | 0.00 | 0.00 | 0.00 | 81 | 1011.1 |
| 20260902044506 | 61 | 93 | 1.0 | 6.0 | 0.00 | 0.00 | 0.00 | 82 | 1011.0 |
| 20260902044003 | 62 | 51 | 1.0 | 6.0 | 0.00 | 0.00 | 0.00 | 81 | 1011.1 |
| 20260902043504 | 61 | 137 | 1.0 | 4.0 | 0.00 | 0.00 | 0.00 | 81 | 1011.1 |
| 20260902043005 | 62 | 126 | 1.0 | 4.0 | 0.00 | 0.00 | 0.00 | 81 | 1011.2 |
| 20260902042504 | 62 | 196 | 1.0 | 4.0 | 0.00 | 0.00 | 0.00 | 80 | 1011.3 |
| 20260902042004 | 62 | 120 | 1.0 | 4.0 | 0.00 | 0.00 | 0.00 | 81 | 1011.3 |
| 20260902041506 | 62 | 115 | 2.0 | 4.0 | 0.00 | 0.00 | 0.00 | 81 | 1011.3 |
| 20260902041003 | 62 | 158 | 2.0 | 4.0 | 0.00 | 0.00 | 0.00 | 81 | 1011.3 |
| 20260902040507 | 62 | 126 | 1.0 | 4.0 | 0.00 | 0.00 | 0.00 | 81 | 1011.3 |
| 20260902040003 | 62 | 229 | 2.0 | 4.0 | 0.00 | 0.00 | 0.00 | 80 | 1011.3 |
| 20260902035505 | 62 | 105 | 0.0 | 6.0 | 0.00 | 0.00 | 0.00 | 81 | 1011.2 |
| 20260902035002 | 62 | 137 | 1.0 | 6.0 | 0.00 | 0.00 | 0.00 | 81 | 1011.1 |
| 20260902034504 | 62 | 191 | 1.0 | 4.0 | 0.00 | 0.00 | 0.00 | 80 | 1011.1 |
| 20260902034005 | 62 | 196 | 1.0 | 4.0 | 0.00 | 0.00 | 0.00 | 80 | 1011.2 |
| 20260902033502 | 62 | 119 | 0.0 | 4.0 | 0.00 | 0.00 | 0.00 | 80 | 1011.1 |
| 20260902033004 | 62 | 93 | 0.0 | 3.0 | 0.00 | 0.00 | 0.00 | 80 | 1011.1 |
| 20260902032515 | 62 | 9 | 0.0 | 4.0 | 0.00 | 0.00 | 0.00 | 80 | 1011.0 |
| 20260902032016 | 62 | 34 | 1.0 | 4.0 | 0.00 | 0.00 | 0.00 | 80 | 1011.0 |
| 20260902031531 | 63 | 178 | 1.0 | 6.0 | 0.00 | 0.00 | 0.00 | 80 | 1010.9 |
| 20260902031012 | 63 | 162 | 1.0 | 6.0 | 0.00 | 0.00 | 0.00 | 79 | 1010.8 |
| 20260902030512 | 63 | 164 | 2.0 | 6.0 | 0.00 | 0.00 | 0.00 | 79 | 1010.9 |
| 20260902030028 | 63 | 162 | 1.0 | 4.0 | 0.00 | 0.00 | 0.00 | 79 | 1010.9 |
| 20260902025516 | 63 | 193 | 2.0 | 4.0 | 0.00 | 0.00 | 0.00 | 79 | 1010.8 |
| 20260902025019 | 63 | 178 | 1.0 | 3.0 | 0.00 | 0.00 | 0.00 | 80 | 1010.8 |
| 20260902024530 | 63 | 144 | 1.0 | 3.0 | 0.00 | 0.00 | 0.00 | 79 | 1010.8 |
| 20260902024015 | 63 | 93 | 0.0 | 6.0 | 0.00 | 0.00 | 0.00 | 79 | 1010.7 |
| 20260902023513 | 63 | 111 | 1.0 | 6.0 | 0.00 | 0.00 | 0.00 | 78 | 1010.7 |
| 20260902023027 | 63 | 214 | 1.0 | 4.0 | 0.00 | 0.00 | 0.00 | 79 | 1010.7 |
| 20260902022514 | 64 | 137 | 1.0 | 4.0 | 0.00 | 0.00 | 0.00 | 77 | 1010.4 |
| 20260902022016 | 64 | 153 | 0.0 | 3.0 | 0.00 | 0.00 | 0.00 | 77 | 1010.4 |
| 20260902021534 | 64 | 144 | 1.0 | 5.0 | 0.00 | 0.00 | 0.00 | 77 | 1010.4 |
| 20260902021014 | 64 | 102 | 1.0 | 6.0 | 0.00 | 0.00 | 0.00 | 76 | 1010.4 |
| 20260902020513 | 64 | 173 | 2.0 | 6.0 | 0.00 | 0.00 | 0.00 | 75 | 1010.4 |
| 20260902020034 | 64 | 120 | 1.0 | 6.0 | 0.00 | 0.00 | 0.00 | 75 | 1010.4 |
| 20260902015513 | 64 | 146 | 2.0 | 6.0 | 0.00 | 0.00 | 0.00 | 75 | 1010.5 |
| 20260902015014 | 65 | 178 | 1.0 | 5.0 | 0.00 | 0.00 | 0.00 | 75 | 1010.5 |
| 20260902014537 | 65 | 192 | 1.0 | 7.0 | 0.00 | 0.00 | 0.00 | 75 | 1010.6 |
| 20260902014019 | 65 | 195 | 3.0 | 7.0 | 0.00 | 0.00 | 0.00 | 74 | 1010.6 |
| 20260902013513 | 65 | 147 | 2.0 | 7.0 | 0.00 | 0.00 | 0.00 | 75 | 1010.5 |
| 20260902013033 | 65 | 171 | 1.0 | 8.0 | 0.00 | 0.00 | 0.00 | 75 | 1010.5 |
| 20260902012516 | 65 | 196 | 2.0 | 8.0 | 0.00 | 0.00 | 0.00 | 74 | 1010.6 |
| 20260902012012 | 65 | 129 | 3.0 | 7.0 | 0.00 | 0.00 | 0.00 | 74 | 1010.6 |
| 20260902011538 | 65 | 175 | 2.0 | 10.0 | 0.00 | 0.00 | 0.00 | 73 | 1010.6 |
| 20260902011015 | 66 | 200 | 4.0 | 10.0 | 0.00 | 0.00 | 0.00 | 74 | 1010.5 |
| 20260902010513 | 66 | 129 | 2.0 | 5.0 | 0.00 | 0.00 | 0.00 | 76 | 1010.5 |
| 20260902010052 | 66 | 111 | 2.0 | 5.0 | 0.00 | 0.00 | 0.00 | 75 | 1010.4 |
| 20260902005516 | 66 | 111 | 0.0 | 10.0 | 0.00 | 0.00 | 0.00 | 75 | 1010.4 |
| 20260902005014 | 66 | 153 | 3.0 | 10.0 | 0.00 | 0.00 | 0.00 | 74 | 1010.4 |
| 20260902004539 | 66 | 93 | 1.0 | 5.0 | 0.00 | 0.00 | 0.00 | 76 | 1010.4 |
| 20260902004018 | 66 | 170 | 2.0 | 5.0 | 0.00 | 0.00 | 0.00 | 75 | 1010.5 |
| 20260902003515 | 66 | 196 | 1.0 | 6.0 | 0.00 | 0.00 | 0.00 | 75 | 1010.4 |
| 20260902003033 | 66 | 191 | 1.0 | 6.0 | 0.00 | 0.00 | 0.00 | 74 | 1010.4 |
| 20260902002513 | 66 | 144 | 0.0 | 10.0 | 0.00 | 0.00 | 0.00 | 76 | 1010.4 |
| 20260902002015 | 65 | 158 | 1.0 | 10.0 | 0.00 | 0.00 | 0.00 | 75 | 1010.3 |
| 20260902001530 | 66 | 178 | 1.0 | 6.0 | 0.00 | 0.00 | 0.00 | 74 | 1010.4 |
| 20260902001015 | 66 | 41 | 2.0 | 6.0 | 0.00 | 0.00 | 0.00 | 74 | 1010.4 |
| 20260902000517 | 66 | 93 | 1.0 | 6.0 | 0.00 | 0.00 | 0.00 | 75 | 1010.4 |
| 20260902000047 | 65 | 137 | 1.0 | 8.0 | 0.00 | 0.00 | 0.00 | 75 | 1010.4 |
| 20260901235517 | 65 | 165 | 1.0 | 8.0 | 0.00 | 0.00 | 0.00 | 74 | 1010.4 |